map of VLC home
VLC - Airport
Location
City:  Valencia, Valenciana, Spain
Name:Manises
ICAO:LEVC
IATA:VLC

Details
Type:Airport (Aerodrome, Airfield)
Use:Public/Civil
Latitude:3929'22"N (39.489314)
Longitude:028'54"W (-0.481624)
Datum:WGS 1984
Elevation:225 ft (69 m)
Variation:0.47E (WMM2015v2 magnetic declination)
0.15 annual change
Runways:2
Longest:8858 × 148 ft (2700 × 45 m), paved

Time
Time Zone:UTC+1 (DST+2)
Local Time:

Weather
METAR:LEVC 041400Z 19006KT 150V230 CAVOK 17/M07 Q1025 NOSIG
TAF:LEVC 041100Z 0412/0512 27006KT 9999 FEW030 TX18/0413Z TN05/0506Z
TEMPO 0412/0418 18005KT

Related Locations
Nearby:
Farthest:GIS: 12337 mi / 19855 km
Gisborne, GIS, NZ

Find:

   beyond  
but within

Other Information
Maps:
NOTAMs:
Links:
Sources:

  
  • flag of Spain
  • flag of Valenciana
  

Sectional Chart

Flight Planning
at skyvector.com

Satellite Image

Google Maps Satellite view

 

Copyright © 2004-2019 Karl L. Swartz. All rights reserved.
The Great Circle Mapper name and logo are trademarks of the Great Circle Mapper.
All other trademarks mentioned herein belong to their respective owners.
Please see credits for attibutions and further copyright information.

  Follow gcmap on Facebook Follow gcmap on Twitter GCmap on LinkedIn

hCard Microformat

Geo Microformat